Flag for Germany Weather past 2 weeks in Grevenbroich, North Rhine-Westphalia, Germany

Now
59 °F

Partly cloudy.


Feels Like: 56 °F
Forecast: 49 / 63 °F
Wind: 16 mph from Northwest

Location: Monchengladbach Airport

Current Time: Aug 23, 2014 at 3:46:15 PM

Latest Report: Aug 23, 2014 at 3:20 PM


Visibility: N/A

Pressure: 29.95 "Hg

Humidity: 63%

Dew point: 46 °F

Location of GrevenbroichLocation

Historic Weather in Grevenbroich — Graph

°F

Grevenbroich temperature yesterday

Maximum temperature yesterday: 66 °F (at 12:20 PM)
Minimum temperature yesterday: 54 °F (at 7:50 AM)
Average temperature yesterday: 62 °F

Past Weeks' High & Low Weather Summary

 TemperatureHumidityPressure
High75 °F (Aug 8, 2:20 PM)100% (Aug 8, 4:02 PM)30.09 "Hg (Aug 8, 4:02 PM)
Low48 °F (Aug 21, 7:50 AM)46% (Aug 11, 2:50 PM)29.56 "Hg (Aug 10, 6:20 PM)
Average63 °F72%29.86 "Hg
* Reported Aug 8 2:20 PM — Aug 23 2:50 PM, Grevenbroich, Weather by CustomWeather, © 2014

Note: Actual official high and low records may vary slightly from our data, if they occured in-between our weather recording intervals... More about our weather records

Advertising

Grevenbroich weather history for previous 24 hours

 ConditionsComfort  
Time TempWeatherWind HumidityBarometerVisibility
2:50 PM
Aug 23
61 °FPassing clouds.15 mph59%29.92 "HgN/A
2:20 PM59 °FPassing clouds.18 mph63%29.92 "HgN/A
1:50 PM63 °FPassing clouds.7 mph59%29.92 "HgN/A
1:20 PM63 °FPassing clouds.10 mph59%29.92 "HgN/A
12:50 PM63 °FScattered clouds.10 mph68%29.92 "HgN/A
12:20 PM61 °FScattered clouds.9 mph72%29.92 "HgN/A
11:50 AM61 °FScattered clouds.8 mph72%29.92 "HgN/A
11:20 AM57 °FScattered clouds.7 mph82%29.92 "Hg5 mi
10:50 AM57 °FPartly sunny.7 mph82%29.92 "HgN/A
10:20 AM57 °FScattered clouds.7 mph88%29.92 "Hg5 mi
9:50 AM57 °FScattered clouds.7 mph82%29.92 "Hg5 mi
9:20 AM55 °FScattered clouds.6 mph94%29.92 "Hg5 mi
8:50 AM55 °FScattered clouds.5 mph94%29.92 "Hg5 mi
8:20 AM54 °FClear.2 mph100%29.92 "Hg4 mi
7:50 AM54 °FClear.3 mph94%29.89 "Hg5 mi
8:20 PM
Aug 22
57 °FPassing clouds.5 mph88%29.89 "HgN/A
7:50 PM57 °FPassing clouds.6 mph88%29.89 "HgN/A
7:20 PM57 °FPassing clouds.6 mph88%29.86 "HgN/A
6:50 PM57 °FSprinkles. Passing clouds.8 mph88%29.89 "Hg4 mi
6:20 PM59 °FPassing clouds.16 mph82%29.86 "HgN/A
5:50 PM61 °FSprinkles. Passing clouds.14 mph72%29.86 "Hg5 mi
5:20 PM63 °FPartly cloudy.17 mph64%29.86 "HgN/A
4:50 PM66 °FPassing clouds.9 mph52%29.86 "HgN/A
4:20 PM66 °FPassing clouds.12 mph52%29.86 "HgN/A
3:50 PM66 °FPartly cloudy.14 mph52%29.86 "HgN/A
3:20 PM66 °FPartly cloudy.18 mph52%29.86 "HgN/A
Weather by CustomWeather, © 2014

See weather overviewHow to use our weather pages